Weather Roundup
Issued by NWS Springfield, MO

Home | Current Version | Previous Version | Text Only | Print | Product List | Glossary On
Versions: 1 2 3 4 5 6 7 8 9 10 11 12 13 14 15 16 17 18 19 20 21 22 23 24 25 26 27 28 29 30 31 32 33 34 35 36 37 38 39 40 41 42 43 44 45 46 47 48 49 50
000
NZUS99 KSGF 120007
HRRSGF

HOURLY WEATHER
NATIONAL WEATHER SERVICE SPRINGFIELD MO
600 PM CST THU FEB 11 2016

......SGF CWA......

CITY           SKY/WX    TMP DP  RH WIND       PRES   REMARKS
SPRINGFIELD    PTCLDY    44  19  36 NE6       30.15R
6HR MIN TEMP:  41; 6HR MAX TEMP:  49;

JOPLIN         PTCLDY    43  23  45 NE5       30.17R
6HR MIN TEMP:  41; 6HR MAX TEMP:  48;

WEST PLAINS    CLOUDY    43  18  36 SE5       30.20F
6HR MIN TEMP:  39; 6HR MAX TEMP:  46;

ROLLA          CLOUDY    33  21  61 E7        30.17F WCI  27
6HR MIN TEMP:  31; 6HR MAX TEMP:  36;

OSAGE BEACH    MOCLDY    37  19  48 E6        30.21R WCI  33
BRANSON        CLOUDY    43  19  39 SE13      30.15F

......SURROUNDING SGF CWA......

CITY           SKY/WX    TMP DP  RH WIND       PRES   REMARKS
CHANUTE        PTCLDY    41  24  51 E5        30.19R
PARSONS        PTCLDY    45  25  45 CALM      30.19R
COFFEYVILLE    CLOUDY    45  26  47 N5        30.19R
EMPORIA        PTCLDY    38  22  52 SE6       30.15F WCI  33
GROVE OK       PTCLDY    50  27  40 CALM      30.15F
ROGERS AR      CLOUDY    47  26  44 SE10      30.14F
SILOAM SPRINGS MOCLDY    48  25  40 CALM      30.15S
HARRISON AR    MOCLDY    44  21  40 E8        30.17F
NEAR YELLVILLE PTCLDY    46  18  31 E3        30.19S

......KANSAS AND MISSOURI......

CITY           SKY/WX    TMP DP  RH WIND       PRES   REMARKS
KANSAS CTY INT CLOUDY    34  21  59 SE7       30.19S WCI  28
DOWNTOWN KC    MOCLDY    36  20  52 SE7       30.19F WCI  30
COLUMBIA       CLOUDY    31  20  63 E8        30.22F WCI  23
SEDALIA        CLOUDY    35  19  52 E7        30.21F WCI  29
ST JOSEPH      CLOUDY    34  20  56 SE7       30.19F WCI  28
ST LOUIS       CLOUDY    29   7  39 E9        30.30S WCI  20
SPIRIT OF STL  CLOUDY    29  13  51 NE8       30.28F WCI  21
KIRKSVILLE     CLOUDY    23  10  57 E6        30.27S WCI  16
WICHITA        PTCLDY    44  26  49 CALM      30.14S
TOPEKA         CLEAR     38  22  52 SE7       30.17F WCI  33
OLATHE         CLOUDY    34  21  59 SE6       30.20R WCI  29

......TENNESSEE......

CITY           SKY/WX    TMP DP  RH WIND       PRES   REMARKS
MEMPHIS        MOCLDY    46  24  42 NE12      30.21R
NASHVILLE      PTCLDY    36  21  54 N9        30.27R WCI  29

......ARKANSAS.......

CITY           SKY/WX    TMP DP  RH WIND       PRES   REMARKS
FAYETTEVILLE   PTCLDY    48  26  42 NE5       30.16R
FT SMITH       PTCLDY    58  28  32 NE7       30.13R
LITTLE ROCK    MOCLDY    45  25  45 E9        30.21R

......OKLAHOMA.......

CITY           SKY/WX    TMP DP  RH WIND       PRES   REMARKS
TULSA          CLOUDY    51  28  41 E3        30.14S
PONCA CITY     PTCLDY    50  26  39 E5        30.15R
MCALESTER      PTCLDY    56  31  38 N8        30.14R
OKLAHOMA CITY  PTCLDY    56  31  38 N7        30.13R

......IOWA............

CITY           SKY/WX    TMP DP  RH WIND       PRES   REMARKS
DES MOINES     LGT SNOW  19  11  70 E5        30.26R WCI  12
QUAD CITIES    CLOUDY    22   5  48 CALM      30.28S

......ILLINOIS........

CITY           SKY/WX    TMP DP  RH WIND       PRES   REMARKS
QUINCY         CLOUDY    23  10  57 NW3       30.29R
CHICAGO        PTCLDY    18   3  52 W6        30.27S WCI  10



USA.gov is the U.S. government's official web portal to all federal, state and local government web resources and services.